GW2068 Weather Reports


time (UTC)temp
F
wind
direction
speed
knots
gust
knots
rain 1hr
in
rain 24hr
in
rain mn
in
humidity
%
barometer
mb
20260504182234 77 183 3.5 7.0 0.00 0.00 0.00 34 1018.8
20260504182136 77 202 1.7 5.2 0.00 0.00 0.00 34 1018.7
20260504181136 76 266 0.9 3.5 0.00 0.00 0.00 35 1018.8
20260504180134 75 237 2.6 5.2 0.00 0.00 0.00 35 1018.7
20260504175136 75 169 3.5 6.1 0.00 0.00 0.00 34 1018.9
20260504174136 75 144 2.6 5.2 0.00 0.00 0.00 35 1019.1
20260504173235 75 200 6.1 9.6 0.00 0.00 0.00 35 1018.9
20260504173134 75 230 1.7 6.1 0.00 0.00 0.00 36 1019.0
20260504172134 75 202 2.6 4.3 0.00 0.00 0.00 35 1019.1
20260504171233 75 255 0.9 3.5 0.00 0.00 0.00 35 1019.2
20260504170251 73 199 3.5 5.2 0.00 0.00 0.00 36 1019.4
20260504150750 69 306 0.9 2.6 0.00 0.00 0.00 43 1021.1
20260504120235 49 180 0.0 0.0 0.00 0.00 0.00 75 1020.6
20260504110234 40 180 0.0 0.0 0.00 0.00 0.00 88 1020.0
20260504100335 41 180 0.0 0.0 0.00 0.00 0.00 87 1020.0
20260504081134 44 180 0.0 0.0 0.00 0.00 0.00 81 1019.9
20260504080134 44 180 0.0 0.0 0.00 0.00 0.00 79 1019.9
20260504070233 46 180 0.0 0.0 0.00 0.00 0.00 75 1020.1
20260504050433 51 180 0.0 0.0 0.00 0.00 0.00 59 1020.6
20260504045532 51 180 0.0 0.0 0.00 0.00 0.00 58 1020.3
20260504044535 51 180 0.0 0.0 0.00 0.00 0.00 59 1020.3
20260504042533 52 180 0.0 0.0 0.00 0.00 0.00 58 1020.2
20260504041536 52 180 0.0 0.0 0.00 0.00 0.00 56 1020.2
20260504040632 52 202 0.0 0.0 0.00 0.00 0.00 55 1020.3
20260504035723 52 202 0.0 0.0 0.00 0.00 0.00 55 1020.2
20260504034721 53 202 0.0 0.0 0.00 0.00 0.00 55 1020.3
20260504032821 54 202 0.0 0.0 0.00 0.00 0.00 52 1020.5
20260504031836 54 202 0.0 0.9 0.00 0.00 0.00 52 1020.5
20260504025920 55 202 0.0 0.0 0.00 0.00 0.00 50 1020.6
20260504024939 55 202 0.0 1.7 0.00 0.00 0.00 49 1020.6
20260504023922 55 180 0.0 0.9 0.00 0.00 0.00 49 1020.3
20260504022020 57 180 0.0 0.0 0.00 0.00 0.00 47 1020.3
20260504021023 57 180 0.0 0.9 0.00 0.00 0.00 46 1020.1
20260504020037 57 180 1.7 2.6 0.00 0.00 0.00 46 1019.9
20260504015119 58 185 0.9 1.7 0.00 0.00 0.00 46 1019.9
20260504014120 58 180 0.0 0.9 0.00 0.00 0.00 45 1019.9
20260504014019 58 180 0.0 1.7 0.00 0.00 0.00 46 1019.9
20260504012021 58 180 0.9 1.7 0.00 0.00 0.00 46 1019.6
20260504011020 58 135 0.0 0.0 0.00 0.00 0.00 45 1019.6
20260504010021 58 135 0.9 1.7 0.00 0.00 0.00 45 1019.5
20260504005021 59 135 0.0 0.0 0.00 0.00 0.00 43 1019.5
20260504004020 60 135 0.0 0.0 0.00 0.00 0.00 41 1019.4
20260504003038 61 135 0.9 1.7 0.00 0.00 0.00 39 1019.3
20260504002021 62 135 0.9 1.7 0.00 0.00 0.00 38 1019.2
20260504001119 63 135 0.0 0.9 0.00 0.00 0.00 37 1019.2
20260503234220 66 193 3.5 4.3 0.00 0.00 0.00 32 1019.1
20260503233221 66 190 1.7 3.5 0.00 0.00 0.00 31 1019.0
20260503232219 67 206 2.6 4.3 0.00 0.00 0.00 30 1019.1
20260503231318 68 201 3.5 6.1 0.00 0.00 0.00 30 1019.0
20260503230321 70 225 0.9 2.6 0.00 0.00 0.00 28 1019.1
20260503230221 70 225 0.9 2.6 0.00 0.00 0.00 28 1019.1
20260503225222 69 182 0.9 1.7 0.00 0.00 0.00 27 1019.0
20260503224237 69 200 4.3 6.1 0.00 0.00 0.00 27 1019.1
20260503222320 69 202 0.9 2.6 0.00 0.00 0.00 27 1019.3
20260503220319 68 198 2.6 4.3 0.00 0.00 0.00 27 1019.4
20260503213419 71 303 2.6 3.5 0.00 0.00 0.00 27 1019.8
20260503213321 71 315 1.7 3.5 0.00 0.00 0.00 27 1019.9
20260503212335 68 278 2.6 3.5 0.00 0.00 0.00 28 1019.9
20260503211320 70 189 3.5 6.1 0.00 0.00 0.00 28 1019.9
20260503210418 70 312 3.5 4.3 0.00 0.00 0.00 28 1019.9
20260503210336 70 229 2.6 4.3 0.00 0.00 0.00 28 1019.9
20260503205419 70 216 1.7 4.3 0.00 0.00 0.00 29 1020.0
20260503204437 70 197 4.3 6.1 0.00 0.00 0.00 29 1020.3
20260503202520 68 298 2.6 4.3 0.00 0.00 0.00 29 1020.3
20260503201519 68 193 3.5 4.3 0.00 0.00 0.00 29 1020.6
20260503200520 68 188 5.2 7.0 0.00 0.00 0.00 27 1020.7
20260503195536 70 256 0.9 3.5 0.00 0.00 0.00 28 1020.9
20260503194620 68 206 2.6 4.3 0.00 0.00 0.00 29 1020.9
20260503191719 66 282 2.6 7.0 0.00 0.00 0.00 29 1021.5
20260503190721 65 342 0.9 2.6 0.00 0.00 0.00 29 1021.5
20260503185819 66 87 4.3 6.1 0.00 0.00 0.00 30 1021.7
20260503184821 65 269 1.7 3.5 0.00 0.00 0.00 30 1021.8
20260503183918 65 353 0.9 1.7 0.00 0.00 0.00 30 1022.0
20260503182919 65 352 2.6 4.3 0.00 0.00 0.00 30 1022.1